Regional Weather Roundup
Issued by NWS

Home | Current Version | Previous Version | Text Only | Print | Product List | Glossary Off
Versions: 1 2 3 4 5 6 7 8 9 10 11 12 13 14 15 16 17 18 19 20 21 22 23 24 25 26 27 28 29 30 31 32 33 34 35 36 37 38 39 40 41 42 43 44 45

000
ASUS45 KBOU 251710
RWRCO

WEATHER ROUNDUP FOR COLORADO
NATIONAL WEATHER SERVICE PUEBLO CO
1100 AM MDT WED APR 25 2018

NOTE: "FAIR" INDICATES FEW OR NO CLOUDS BELOW 12000 FEET WITH NO
SIGNIFICANT WEATHER AND/OR OBSTRUCTIONS TO VISIBILITY.

COZ001>005-013-030-031-251800-
...NORTHWEST COLORADO...

CITY           SKY/WX    TMP DP  RH WIND       PRES   REMARKS
CRAIG          SUNNY     47  27  45 VRB5      30.36F
HAYDEN         SUNNY     46  21  37 CALM      30.37F
MEEKER         SUNNY     47  18  31 CALM      30.34F
RABBIT EARS PA NOT AVBL
STEAMBOAT SPGS FAIR      43  20  39 CALM      30.35F
WALDEN         FAIR      41  14  33 S6        30.37F
$$

COZ006>008-011-251800-
...WEST CENTRAL VALLEYS...

CITY           SKY/WX    TMP DP  RH WIND       PRES   REMARKS
GRAND JUNCTION SUNNY     55  20  25 VRB7      30.31F
MONTROSE       SUNNY     50  18  28 NE3       30.33F
EAGLE          SUNNY     46  20  35 CALM      30.38F
RIFLE          SUNNY     50  24  36 CALM      30.32F
DELTA          NOT AVBL
NUCLA          NOT AVBL
$$

COZ017>023-064>068-251800-
...SOUTHWEST COLORADO...

CITY           SKY/WX    TMP DP  RH WIND       PRES   REMARKS
DURANGO        SUNNY     59  22  24 S10       30.26F
CORTEZ         SUNNY     61   4  10 VRB7      30.25S
PAGOSA SPRINGS FAIR      57 -11   6 SW3       30.30S
TELLURIDE      SUNNY     53  -7   8 W3        30.35F
WOLF CREEK PAS SUNNY     36 -11  13 NE6       30.50S
$$

COZ009-010-012-014-032>034-037-058>063-251800-
...CENTRAL COLORADO...

CITY           SKY/WX    TMP DP  RH WIND       PRES   REMARKS
ASPEN          SUNNY     47  11  23 CALM      30.33F
BUENA VISTA    FAIR      43  24  48 CALM      30.36F
COPPER MTN     NOT AVBL
BERTHOUD PASS  FAIR      25  14  63 NW12      30.44S WCI  14
COTTONWOOD PAS SUNNY     45  30  57 SE6       30.39F
GUNNISON       SUNNY     46  13  26 VRB3      30.36F
KREMMLING      SUNNY     46  21  36 CALM      30.39F
LEADVILLE      SUNNY     40   3  21 VRB5      30.37F
MONARCH PASS   SUNNY     34   0  23 NE9       30.56S WCI  26
SALIDA         FAIR      45  25  46 CALM      30.44F
SUNLIGHT       SUNNY     37   5  25 S3        30.46S
WILKERSON PASS SUNNY     34   9  35 N6        30.45R WCI  29
$$

COZ069>075-251800-
...SAN LUIS VALLEY/SANGRE DE CRISTO MOUNTAINS...

CITY           SKY/WX    TMP DP  RH WIND       PRES   REMARKS
ALAMOSA        SUNNY     49   9  19 VRB3      30.33F
DEL NORTE      FAIR      49  10  20 E3        30.35F
LA VETA PASS   SUNNY     39  27  60 SW3       30.51S
SAGUACHE       NOT AVBL
$$

COZ035-036-038>040-251800-
...NORTHERN COLORADO FRONT RANGE...

CITY           SKY/WX    TMP DP  RH WIND       PRES   REMARKS
DENVER INTL AP SUNNY     46  28  49 SW7       30.30F
DMNS CITY PARK NOT AVBL
AURORA         SUNNY     48  28  46 W5        30.30F
FRONT RANGE AP SUNNY     48  30  49 SW3       30.31F
ERIE MUNI ARPT FAIR      48  30  50 CALM      30.35F
BOULDER MUN AP FAIR      46  32  57 SE5       30.29F
CENTENNIAL     SUNNY     47  27  45 S3        30.30F
BROOMFIELD     SUNNY     48  34  57 SE7       30.30F
LOVELAND       SUNNY     48  32  53 S12       30.29F
LONGMONT       FAIR      51  34  51 SE5       30.31F
$$

COZ041-046-047-076>085-087-088-251800-
...PIKES PEAK/PALMER DIVIDE AND SOUTHERN FOOTHILLS...

CITY           SKY/WX    TMP DP  RH WIND       PRES   REMARKS
COLO. SPRINGS  MOSUNNY   43  31  62 S7        30.33F
A. F. ACADEMY  SUNNY     45  30  56 S3        30.31F
SCHRIEVER AFB  NOT AVBL
CHEYENNE MTN   NOT AVBL
ELLICOTT         N/A    N/A N/A N/A SW7       30.31F
FALCON         FAIR      49  16  26 N8G16     30.32F
FORT CARSON    SUNNY     45  31  59 CALM      30.31F
LIMON          SUNNY     45  28  51 NW10      30.31F
MONUMENT HILL  SUNNY     39  23  52 NW7       30.33F
CANON CITY     FAIR      50  34  53 SW5       30.31F
WALSENBURG     FAIR      41  36  81 MISG      30.33F
TRINIDAD       SUNNY     47  33  58 NW5       30.34F
$$

COZ042>045-048>051-090-091-251800-
...NORTHEAST COLORADO...

CITY           SKY/WX    TMP DP  RH WIND       PRES   REMARKS
GREELEY ARPT   SUNNY     50  31  48 SW9       30.30F
AKRON          SUNNY     45  28  51 NW8       30.30F
BURLINGTON     SUNNY     47  28  47 N15G23    30.31F
WRAY           FAIR      50  28  43 NW9       30.30F
YUMA           NOT AVBL
STERLING       NOT AVBL
HOLYOKE        FAIR      54  30  40 W7        30.30F
FORT MORGAN    FAIR      50  23  34 W3        30.30F
$$

COZ086-089-092>099-251800-
...SOUTHEAST COLORADO...

CITY           SKY/WX    TMP DP  RH WIND       PRES   REMARKS
PUEBLO         SUNNY     48  35  60 VRB3      30.33F
LA JUNTA       MOSUNNY   49  32  52 VRB3      30.34F
LAMAR          SUNNY     49  31  49 N12       30.31F
SPRINGFIELD      N/A     48  28  46 N16G26    30.31F
$$





USA.gov is the U.S. government's official web portal to all federal, state and local government web resources and services.